Great Bend, KS

10:32 AM CDT on August 16, 2017 (GMT -0500)
Great Bend Municipal

Weather History for KGBD - January, 2014

Change the Weather History Date:

Saturday, January 25, 2014

  Actual Average Record
Temperature  
Mean Temperature 44 °F -  
Max Temperature 57 °F 45 °F 57 °F (2014)
Min Temperature 30 °F 23 °F 21 °F (2017)
Degree Days  
Heating Degree Days 22    
Moisture  
Dew Point 26 °F    
Average Humidity 50    
Maximum Humidity 69    
Minimum Humidity 38    
Precipitation  
Precipitation 0.00 in - - ()
Sea Level Pressure  
Sea Level Pressure 29.99 in    
Wind  
Wind Speed 12 mph (WNW)    
Max Wind Speed 20 mph    
Max Gust Speed 25 mph    
Visibility 10 miles    
Events      
Averages and records for this station are not official NWS values.
T = Trace of Precipitation, MM = Missing Value Source: NWS Daily Summary

Daily Weather History Graph

Daily Weather History Graph

Search for Another Location

Airport or City:

Trip Planner

Search our weather history database for the weather conditions in past years. The results will help you decide how hot, cold, wet, or windy it might be!

Date:

Astronomy

Jan. 25, 2014 Rise Set
Actual Time 7:45 AM CST 5:50 PM CST
Civil Twilight 7:17 AM CST 6:18 PM CST
Nautical Twilight 6:45 AM CST 6:50 PM CST
Astronomical Twilight 6:14 AM CST 7:21 PM CST
Moon 2:19 AM CST (1/25) 12:51 PM CST (1/25)
Length of Visible Light 11h 00m
Length of Day
10h 04m
Waning Crescent, 34% of the Moon is Illuminated
Jan 25
Waning Crescent
Jan 30
New
Feb 6
First Quarter
Feb 14
Full
Feb 22
Last Quarter

Hourly Weather History & Observations

Time (CST) Temp. Windchill Dew Point Humidity Pressure Visibility Wind Dir Wind Speed Gust Speed Precip Events Conditions
12:15 AM 46.4 °F 39.0 °F 24.8 °F 43% 29.96 in 10.0 mi WNW 19.6 mph 25.3 mph N/A   Scattered Clouds
12:35 AM 44.6 °F 37.4 °F 21.2 °F 39% 29.96 in 10.0 mi WNW 16.1 mph - N/A   Scattered Clouds
12:55 AM 42.8 °F 35.4 °F 21.2 °F 42% 29.97 in 10.0 mi WNW 15.0 mph - N/A   Mostly Cloudy
1:15 AM 42.8 °F 36.2 °F 21.2 °F 42% 29.98 in 10.0 mi NW 12.7 mph - N/A   Mostly Cloudy
1:35 AM 44.6 °F 38.4 °F 23.0 °F 43% 29.98 in 10.0 mi NW 12.7 mph - N/A   Scattered Clouds
1:55 AM 42.8 °F 36.2 °F 21.2 °F 42% 29.98 in 10.0 mi WNW 12.7 mph - N/A   Mostly Cloudy
2:15 AM 42.8 °F 36.2 °F 21.2 °F 42% 29.99 in 10.0 mi WNW 12.7 mph - N/A   Scattered Clouds
2:35 AM 41.0 °F 34.3 °F 21.2 °F 45% 30.00 in 10.0 mi WNW 11.5 mph - N/A   Mostly Cloudy
2:55 AM 39.2 °F 32.0 °F 21.2 °F 49% 30.01 in 10.0 mi WNW 11.5 mph - N/A   Partly Cloudy
3:15 AM 39.2 °F 32.0 °F 21.2 °F 49% 30.01 in 10.0 mi WNW 11.5 mph - N/A   Clear
3:35 AM 39.2 °F 31.6 °F 21.2 °F 49% 30.01 in 10.0 mi WNW 12.7 mph - N/A   Clear
3:55 AM 37.4 °F 29.8 °F 21.2 °F 52% 30.02 in 10.0 mi WNW 11.5 mph - N/A   Clear
4:15 AM 37.4 °F 29.8 °F 21.2 °F 52% 30.02 in 10.0 mi WNW 11.5 mph - N/A   Clear
4:35 AM 35.6 °F 28.0 °F 21.2 °F 56% 30.02 in 10.0 mi WNW 10.4 mph - N/A   Clear
4:55 AM 37.4 °F 29.8 °F 21.2 °F 52% 30.02 in 10.0 mi WNW 11.5 mph - N/A   Clear
5:15 AM 37.4 °F 29.8 °F 21.2 °F 52% 30.02 in 10.0 mi WNW 11.5 mph - N/A   Clear
5:35 AM 37.4 °F 30.8 °F 21.2 °F 52% 30.02 in 10.0 mi WNW 9.2 mph - N/A   Clear
5:55 AM 35.6 °F 28.6 °F 21.2 °F 56% 30.03 in 10.0 mi West 9.2 mph - N/A   Clear
6:15 AM 33.8 °F 27.0 °F 21.2 °F 60% 30.03 in 10.0 mi WNW 8.1 mph - N/A   Clear
6:35 AM 33.8 °F 25.8 °F 21.2 °F 60% 30.03 in 10.0 mi WNW 10.4 mph - N/A   Clear
6:55 AM 35.6 °F 28.6 °F 21.2 °F 56% 30.04 in 10.0 mi WNW 9.2 mph - N/A   Clear
7:15 AM 33.8 °F 27.0 °F 21.2 °F 60% 30.04 in 10.0 mi WNW 8.1 mph - N/A   Clear
7:35 AM 30.2 °F 22.6 °F 21.2 °F 69% 30.04 in 10.0 mi WNW 8.1 mph - N/A   Clear
7:55 AM 33.8 °F 25.8 °F 21.2 °F 60% 30.05 in 10.0 mi WNW 10.4 mph - N/A   Clear
8:15 AM 35.6 °F 27.5 °F 23.0 °F 60% 30.05 in 10.0 mi NW 11.5 mph - N/A   Clear
8:35 AM 39.2 °F 32.0 °F 24.8 °F 56% 30.05 in 10.0 mi NW 11.5 mph - N/A   Scattered Clouds
8:55 AM 42.8 °F 35.8 °F 24.8 °F 49% 30.06 in 10.0 mi NW 13.8 mph - N/A   Mostly Cloudy
9:15 AM 44.6 °F 38.1 °F 24.8 °F 46% 30.07 in 10.0 mi NW 13.8 mph 17.3 mph N/A   Mostly Cloudy
9:35 AM 44.6 °F 38.1 °F 24.8 °F 46% 30.08 in 10.0 mi NNW 13.8 mph - N/A   Scattered Clouds
9:55 AM 48.2 °F - 26.6 °F 43% 30.08 in 10.0 mi NNW 11.5 mph - N/A   Mostly Cloudy
10:15 AM 50.0 °F - 26.6 °F 40% 30.08 in 10.0 mi NNW 13.8 mph - N/A   Mostly Cloudy
10:35 AM 51.8 °F - 28.4 °F 41% 30.09 in 10.0 mi North 16.1 mph - N/A   Mostly Cloudy
10:55 AM 53.6 °F - 30.2 °F 41% 30.10 in 10.0 mi NNW 16.1 mph - N/A   Mostly Cloudy
11:15 AM 55.4 °F - 32.0 °F 41% 30.10 in 10.0 mi NNW 17.3 mph 20.7 mph N/A   Mostly Cloudy
11:35 AM 55.4 °F - 32.0 °F 41% 30.10 in 10.0 mi NNW 16.1 mph 20.7 mph N/A   Mostly Cloudy
11:55 AM 55.4 °F - 33.8 °F 44% 30.09 in 10.0 mi NNW 16.1 mph - N/A   Mostly Cloudy
12:15 PM 55.4 °F - 33.8 °F 44% 30.08 in 10.0 mi NNW 15.0 mph 21.9 mph N/A   Mostly Cloudy
12:35 PM 55.4 °F - 33.8 °F 44% 30.07 in 10.0 mi NNW 15.0 mph 19.6 mph N/A   Mostly Cloudy
12:55 PM 57.2 °F - 32.0 °F 38% 30.06 in 10.0 mi North 13.8 mph 17.3 mph N/A   Mostly Cloudy
1:15 PM 55.4 °F - 32.0 °F 41% 30.05 in 10.0 mi NNW 13.8 mph 19.6 mph N/A   Mostly Cloudy
1:35 PM 57.2 °F - 32.0 °F 38% 30.04 in 10.0 mi North 15.0 mph - N/A   Mostly Cloudy
1:55 PM 57.2 °F - 32.0 °F 38% 30.03 in 10.0 mi NNW 12.7 mph 18.4 mph N/A   Mostly Cloudy
2:15 PM 57.2 °F - 32.0 °F 38% 30.02 in 10.0 mi NNW 11.5 mph 17.3 mph N/A   Mostly Cloudy
2:35 PM 57.2 °F - 32.0 °F 38% 30.01 in 10.0 mi NW 10.4 mph - N/A   Mostly Cloudy
2:55 PM 57.2 °F - 33.8 °F 41% 30.00 in 10.0 mi WNW 4.6 mph - N/A   Mostly Cloudy
3:15 PM 57.2 °F - 32.0 °F 38% 30.00 in 10.0 mi NNW 9.2 mph - N/A   Mostly Cloudy
3:35 PM 57.2 °F - 32.0 °F 38% 30.00 in 10.0 mi NW 9.2 mph 16.1 mph N/A   Mostly Cloudy
3:55 PM 57.2 °F - 32.0 °F 38% 29.99 in 10.0 mi NW 9.2 mph - N/A   Mostly Cloudy
4:15 PM 57.2 °F - 32.0 °F 38% 29.98 in 10.0 mi WNW 8.1 mph - N/A   Mostly Cloudy
4:35 PM 55.4 °F - 32.0 °F 41% 29.98 in 10.0 mi NW 6.9 mph - N/A   Mostly Cloudy
4:55 PM 55.4 °F - 30.2 °F 38% 29.97 in 10.0 mi WNW 4.6 mph - N/A   Mostly Cloudy
5:15 PM 53.6 °F - 30.2 °F 41% 29.96 in 10.0 mi West 3.5 mph - N/A   Mostly Cloudy
5:35 PM 51.8 °F - 30.2 °F 44% 29.96 in 10.0 mi West 3.5 mph - N/A   Mostly Cloudy
5:55 PM 50.0 °F - 30.2 °F 47% 29.95 in 10.0 mi SW 5.8 mph - N/A   Mostly Cloudy
6:15 PM 44.6 °F 40.2 °F 28.4 °F 53% 29.95 in 10.0 mi SW 8.1 mph - N/A   Mostly Cloudy
6:35 PM 44.6 °F 40.2 °F 28.4 °F 53% 29.94 in 10.0 mi SSW 8.1 mph - N/A   Mostly Cloudy
6:55 PM 42.8 °F 37.5 °F 26.6 °F 53% 29.93 in 10.0 mi SSW 9.2 mph - N/A   Mostly Cloudy
7:15 PM 39.2 °F 33.0 °F 26.6 °F 61% 29.93 in 10.0 mi SSW 9.2 mph - N/A   Mostly Cloudy
7:35 PM 39.2 °F 33.6 °F 26.6 °F 61% 29.92 in 10.0 mi SSW 8.1 mph - N/A   Mostly Cloudy
7:55 PM 39.2 °F 32.5 °F 26.6 °F 61% 29.91 in 10.0 mi SSW 10.4 mph - N/A   Mostly Cloudy
8:15 PM 37.4 °F 30.3 °F 26.6 °F 65% 29.91 in 10.0 mi SSW 10.4 mph - N/A   Scattered Clouds
8:35 PM 37.4 °F 30.3 °F 26.6 °F 65% 29.90 in 10.0 mi SSW 10.4 mph - N/A   Mostly Cloudy
8:55 PM 37.4 °F 30.8 °F 26.6 °F 65% 29.89 in 10.0 mi SSW 9.2 mph - N/A   Mostly Cloudy
9:15 PM 39.2 °F 33.6 °F 28.4 °F 65% 29.88 in 10.0 mi SSW 8.1 mph - N/A   Mostly Cloudy
9:35 PM 37.4 °F 32.8 °F 26.6 °F 65% 29.88 in 10.0 mi SW 5.8 mph - N/A   Scattered Clouds
9:55 PM 37.4 °F 29.8 °F 26.6 °F 65% 29.86 in 10.0 mi SSW 11.5 mph - N/A   Scattered Clouds
10:15 PM 37.4 °F 29.8 °F 26.6 °F 65% 29.86 in 10.0 mi SW 11.5 mph - N/A   Mostly Cloudy
10:35 PM 39.2 °F 32.0 °F 26.6 °F 61% 29.85 in 10.0 mi SW 11.5 mph - N/A   Scattered Clouds
10:55 PM 39.2 °F 31.6 °F 26.6 °F 61% 29.84 in 10.0 mi SW 12.7 mph - N/A   Mostly Cloudy
11:15 PM 39.2 °F 31.6 °F 26.6 °F 61% 29.84 in 10.0 mi SW 12.7 mph - N/A   Mostly Cloudy
11:35 PM 39.2 °F 31.2 °F 26.6 °F 61% 29.83 in 10.0 mi SW 13.8 mph - N/A   Partly Cloudy
11:55 PM 37.4 °F 30.3 °F 26.6 °F 65% 29.83 in 10.0 mi SW 10.4 mph - N/A   Scattered Clouds